When you browse on this site, cookies collect data to enhance your experience and personalize the content and advertising you see.
Visit our Privacy Policy to learn more. By continuing to use the site, you agree to this use of cookies and data.
  • In France
  • List of Countries
  • For 7 days
  • Water Temperature
  • Satellite Maps
  • Weather Map
  • Weather Widgets
  • user-avatar
    Login

    Hourly Weather Algiers

    Today, 17 June, Monday

    Time Temperature Precipitation Wind Pressure Humidity
    00:00 +21°C° 0 mm 4 mps 748 mmHg 87%
    01:00 +21°C° 1.2 mm 4 mps 748 mmHg 86%
    02:00 +21°C° 1.2 mm 3 mps 748 mmHg 86%
    03:00 +21°C° 1.2 mm 2 mps 748 mmHg 85%
    04:00 +21°C° 0.6 mm 3 mps 748 mmHg 86%
    05:00 +21°C° 0.6 mm 3 mps 749 mmHg 87%
    06:00 +21°C° 0 mm 4 mps 749 mmHg 89%
    07:00 +22°C° 0 mm 3 mps 749 mmHg 85%
    08:00 +23°C° 0 mm 2 mps 749 mmHg 81%
    09:00 +24°C° 0 mm 2 mps 749 mmHg 78%
    10:00 +24°C° 0 mm 2 mps 749 mmHg 73%
    11:00 +25°C° 0 mm 3 mps 749 mmHg 69%
    12:00 +26°C° 0 mm 4 mps 749 mmHg 64%
    13:00 +26°C° 0 mm 4 mps 748 mmHg 63%
    14:00 +26°C° 0 mm 4 mps 748 mmHg 61%
    15:00 +26°C° 0 mm 4 mps 748 mmHg 60%
    16:00 +25°C° 0 mm 4 mps 748 mmHg 61%
    17:00 +25°C° 0 mm 4 mps 748 mmHg 62%
    18:00 +24°C° 0 mm 3 mps 748 mmHg 63%
    19:00 +22°C° 0 mm 3 mps 748 mmHg 65%
    20:00 +22°C° 0 mm 3 mps 749 mmHg 68%
    21:00 +21°C° 0 mm 3 mps 749 mmHg 70%
    22:00 +21°C° 0 mm 2 mps 749 mmHg 70%
    23:00 +21°C° 0 mm 2 mps 749 mmHg 70%

    Tomorrow, 18 June, Tuesday

    Time Temperature Precipitation Wind Pressure Humidity
    00:00 +21°C° 0 mm 2 mps 749 mmHg 70%
    01:00 +21°C° 0 mm 2 mps 748 mmHg 70%
    02:00 +21°C° 0 mm 2 mps 748 mmHg 70%
    03:00 +21°C° 0 mm 2 mps 748 mmHg 69%
    04:00 +21°C° 0 mm 2 mps 748 mmHg 67%
    05:00 +23°C° 0 mm 2 mps 748 mmHg 65%
    06:00 +23°C° 0 mm 2 mps 748 mmHg 63%
    07:00 +24°C° 0 mm 2 mps 748 mmHg 58%
    08:00 +26°C° 0 mm 2 mps 749 mmHg 54%
    09:00 +27°C° 0 mm 2 mps 749 mmHg 50%
    10:00 +27°C° 0 mm 3 mps 748 mmHg 49%
    11:00 +28°C° 0 mm 3 mps 748 mmHg 49%
    12:00 +28°C° 0 mm 4 mps 748 mmHg 48%
    13:00 +28°C° 0 mm 4 mps 748 mmHg 47%
    14:00 +28°C° 0 mm 4 mps 747 mmHg 47%
    15:00 +28°C° 0 mm 4 mps 747 mmHg 46%
    16:00 +28°C° 0 mm 4 mps 747 mmHg 48%
    17:00 +27°C° 0 mm 3 mps 747 mmHg 49%
    18:00 +27°C° 0 mm 3 mps 747 mmHg 50%
    19:00 +26°C° 0 mm 3 mps 747 mmHg 52%
    20:00 +26°C° 0 mm 3 mps 747 mmHg 54%
    21:00 +25°C° 0 mm 3 mps 748 mmHg 56%
    22:00 +25°C° 0 mm 3 mps 747 mmHg 55%
    23:00 +25°C° 0 mm 2 mps 747 mmHg 55%

    Day after tomorrow, 19 June, Wednesday

    Time Temperature Precipitation Wind Pressure Humidity
    00:00 +25°C° 0 mm 1 mps 747 mmHg 55%
    01:00 +25°C° 0 mm 1 mps 747 mmHg 55%
    02:00 +25°C° 0 mm 1 mps 747 mmHg 54%
    03:00 +25°C° 0 mm 1 mps 747 mmHg 54%
    04:00 +25°C° 0 mm 2 mps 747 mmHg 59%
    05:00 +23°C° 0 mm 4 mps 747 mmHg 64%
    06:00 +22°C° 0 mm 5 mps 747 mmHg 69%
    07:00 +23°C° 0 mm 4 mps 748 mmHg 67%
    08:00 +25°C° 0 mm 4 mps 748 mmHg 65%
    09:00 +26°C° 0 mm 3 mps 748 mmHg 63%
    10:00 +27°C° 0 mm 4 mps 748 mmHg 60%
    11:00 +27°C° 0 mm 4 mps 748 mmHg 58%
    12:00 +28°C° 0 mm 4 mps 748 mmHg 55%
    13:00 +28°C° 0 mm 3 mps 747 mmHg 55%
    14:00 +28°C° 0 mm 3 mps 747 mmHg 55%
    15:00 +28°C° 0 mm 2 mps 746 mmHg 55%
    16:00 +27°C° 0 mm 2 mps 746 mmHg 56%
    17:00 +26°C° 0 mm 2 mps 746 mmHg 58%
    18:00 +26°C° 0 mm 1 mps 746 mmHg 59%
    19:00 +26°C° 0.2 mm 2 mps 746 mmHg 60%
    20:00 +26°C° 0.2 mm 2 mps 746 mmHg 61%
    21:00 +25°C° 0.2 mm 2 mps 746 mmHg 63%
    22:00 +25°C° 0.3 mm 2 mps 746 mmHg 64%
    23:00 +25°C° 0.3 mm 2 mps 746 mmHg 65%

    20 June, Thursday

    Time Temperature Precipitation Wind Pressure Humidity
    00:00 +25°C° 0.3 mm 2 mps 746 mmHg 67%
    01:00 +24°C° 0.1 mm 2 mps 746 mmHg 69%
    02:00 +24°C° 0.1 mm 3 mps 746 mmHg 71%
    03:00 +23°C° 0.1 mm 4 mps 746 mmHg 74%
    04:00 +22°C° 0.2 mm 3 mps 746 mmHg 76%
    05:00 +22°C° 0.2 mm 3 mps 746 mmHg 77%
    06:00 +23°C° 0.2 mm 2 mps 746 mmHg 79%
    07:00 +24°C° 0 mm 2 mps 747 mmHg 71%
    08:00 +26°C° 0 mm 1 mps 747 mmHg 63%
    09:00 +27°C° 0 mm 1 mps 747 mmHg 55%
    10:00 +28°C° 0 mm 2 mps 747 mmHg 52%
    11:00 +28°C° 0 mm 2 mps 746 mmHg 49%
    12:00 +28°C° 0 mm 3 mps 746 mmHg 45%
    13:00 +28°C° 0 mm 3 mps 746 mmHg 45%
    14:00 +28°C° 0 mm 2 mps 746 mmHg 44%
    15:00 +28°C° 0 mm 2 mps 745 mmHg 43%
    16:00 +28°C° 0 mm 2 mps 745 mmHg 46%
    17:00 +27°C° 0 mm 2 mps 745 mmHg 49%
    18:00 +26°C° 0 mm 2 mps 745 mmHg 52%
    19:00 +26°C° 0.3 mm 2 mps 745 mmHg 54%
    20:00 +25°C° 0.3 mm 1 mps 746 mmHg 57%
    21:00 +24°C° 0.3 mm 1 mps 746 mmHg 59%
    22:00 +24°C° 0.1 mm 1 mps 746 mmHg 61%
    23:00 +24°C° 0.1 mm 1 mps 746 mmHg 63%

    21 June, Friday

    Time Temperature Precipitation Wind Pressure Humidity
    00:00 +24°C° 0.1 mm 2 mps 746 mmHg 65%
    01:00 +23°C° 0.1 mm 2 mps 746 mmHg 67%
    02:00 +23°C° 0.1 mm 2 mps 746 mmHg 69%
    03:00 +23°C° 0.1 mm 2 mps 746 mmHg 71%
    04:00 +23°C° 0 mm 2 mps 746 mmHg 72%
    05:00 +23°C° 0 mm 2 mps 746 mmHg 74%
    06:00 +23°C° 0 mm 2 mps 746 mmHg 75%
    07:00 +24°C° 0 mm 2 mps 747 mmHg 67%
    08:00 +25°C° 0 mm 1 mps 747 mmHg 60%
    09:00 +27°C° 0 mm 1 mps 747 mmHg 53%
    10:00 +27°C° 0 mm 2 mps 746 mmHg 50%
    11:00 +27°C° 0 mm 3 mps 746 mmHg 47%
    12:00 +28°C° 0 mm 3 mps 746 mmHg 44%
    13:00 +27°C° 0 mm 3 mps 746 mmHg 47%
    14:00 +27°C° 0 mm 3 mps 745 mmHg 50%
    15:00 +27°C° 0 mm 2 mps 745 mmHg 53%
    16:00 +26°C° 0 mm 2 mps 745 mmHg 54%
    17:00 +26°C° 0 mm 2 mps 745 mmHg 55%
    18:00 +25°C° 0 mm 2 mps 745 mmHg 56%
    19:00 +25°C° 0 mm 1 mps 746 mmHg 59%
    20:00 +24°C° 0 mm 1 mps 747 mmHg 62%
    21:00 +23°C° 0 mm 1 mps 747 mmHg 65%
    22:00 +23°C° 0 mm 1 mps 747 mmHg 67%
    23:00 +23°C° 0 mm 2 mps 747 mmHg 69%

    22 June, Saturday

    Time Temperature Precipitation Wind Pressure Humidity
    00:00 +23°C° 0 mm 2 mps 747 mmHg 70%
    01:00 +21°C° 0 mm 2 mps 747 mmHg 72%
    02:00 +21°C° 0 mm 2 mps 747 mmHg 73%
    03:00 +21°C° 0 mm 2 mps 747 mmHg 74%
    04:00 +21°C° 0 mm 2 mps 747 mmHg 74%
    05:00 +22°C° 0 mm 1 mps 748 mmHg 75%
    06:00 +22°C° 0 mm 1 mps 748 mmHg 76%
    07:00 +24°C° 0 mm 1 mps 748 mmHg 70%
    08:00 +25°C° 0 mm 1 mps 748 mmHg 65%
    09:00 +26°C° 0 mm 2 mps 748 mmHg 59%
    10:00 +26°C° 0 mm 3 mps 748 mmHg 59%
    11:00 +27°C° 0 mm 4 mps 747 mmHg 60%
    12:00 +27°C° 0 mm 5 mps 747 mmHg 60%
    13:00 +27°C° 0 mm 5 mps 747 mmHg 60%
    14:00 +27°C° 0 mm 5 mps 746 mmHg 60%
    15:00 +27°C° 0 mm 5 mps 745 mmHg 60%
    16:00 +26°C° 0 mm 6 mps 745 mmHg 62%
    17:00 +26°C° 0 mm 6 mps 745 mmHg 64%
    18:00 +24°C° 0 mm 6 mps 745 mmHg 66%
    19:00 +23°C° 0 mm 6 mps 745 mmHg 70%
    20:00 +23°C° 0 mm 6 mps 746 mmHg 74%
    21:00 +22°C° 0 mm 5 mps 746 mmHg 78%
    22:00 +22°C° 0 mm 4 mps 746 mmHg 78%
    23:00 +22°C° 0 mm 3 mps 745 mmHg 79%
    Show more